Wetbulb
40.25 40.91 41.16 41.36 41.97 41.02 40.74 40.92 41.57 41.60 41.91 42.01 42.39 43.07 44.18 43.67 42.14 42.38 42.33 43.20 43.04 44.43
36.05 35.65 36.88 37.46 38.85 39.22 39.63 39.69 39.99 40.33 39.96 40.20 39.97 40.28 41.22 40.82 41.60 42.17 42.96 43.01 42.46 42.18
33.01 33.27 33.31 33.35 32.99 33.38 33.65 34.73 35.16 35.08 35.35 35.53 36.36 37.29 36.87 36.44 37.67 37.17 38.34 39.79 39.59 39.36
32.07 32.18 31.90 31.69 31.55 31.76 32.10 32.28 32.38 32.35 32.32 32.38 32.19 32.45 32.74 32.81 33.66 33.39 33.99 35.03 35.85 36.99
31.77 31.41 30.94 31.06 31.47 31.74 30.62 31.13 30.86 31.04 31.10 31.20 31.58 31.40 31.36 31.48 32.04 31.58 31.30 31.67 32.85 33.22
31.63 31.34 30.70 30.79 31.13 30.91 30.09 29.88 30.00 30.05 29.80 30.14 30.65 30.04 30.75 31.10 31.07 31.03 30.87 30.82 30.45 31.25
31.20 30.84 30.32 30.35 29.91 29.99 29.76 29.29 29.10 29.37 29.66 30.07 30.09 30.36 30.77 31.28 30.32 29.85 30.41 30.83 30.52 30.60
31.66 31.28 30.17 29.37 29.03 28.91 28.86 28.63 28.52 28.59 28.86 28.98 30.04 32.33 31.87 31.57 30.33 29.50 29.39 29.61 30.17 31.08
31.92 30.78 29.42 28.66 28.31 28.06 27.72 27.45 27.66 27.54 27.68 27.56 31.01 35.17 36.52 35.11 30.18 29.61 28.90 27.76 28.76 29.96
30.90 29.77 28.74 28.30 27.88 27.21 26.42 26.29 26.50 27.02 27.17 26.67 26.89 35.23 35.97 36.13 30.34 28.63 27.51 28.18 28.25 28.88
30.00 28.68 28.01 27.22 26.50 25.77 25.84 26.10 26.14 25.96 26.71 26.35 28.05 34.23 34.76 35.34 27.75 27.20 27.36 28.10 27.79 27.32
29.00 27.57 26.89 26.21 25.11 25.58 25.48 24.81 24.74 26.16 25.41 24.29 25.27 32.60 33.90 32.95 27.27 27.76 27.07 28.23 28.35 29.13
28.47 26.89 25.71 25.51 24.85 25.35 24.99 26.03 26.03 25.80 24.41 27.16 23.42 30.58 32.81 32.05 27.43 26.23 26.29 26.56 27.97 31.89
27.34 26.44 25.52 24.60 24.22 23.96 23.91 24.12 22.59 23.92 22.58 22.57 24.82 25.44 32.08 32.59 27.96 26.41 26.51 26.34 26.88 27.38
MSLP
1019.33 1019.22 1019.15 1019.08 1018.97 1018.73 1018.32 1017.92 1017.44 1016.96 1016.64 1016.60 1016.39 1016.39 1016.21 1016.23 1016.18 1016.06 1015.71 1015.45 1015.45 1015.39
1019.61 1019.54 1019.47 1019.33 1019.21 1019.06 1018.80 1018.47 1018.17 1017.93 1017.72 1017.49 1017.14 1016.84 1016.59 1016.46 1016.25 1016.17 1016.06 1015.88 1015.79 1015.40
1019.85 1019.81 1019.77 1019.69 1019.69 1019.54 1019.31 1019.04 1018.75 1018.44 1018.11 1017.76 1017.46 1017.33 1017.15 1016.94 1016.83 1016.66 1016.39 1016.01 1015.66 1015.27
1020.05 1019.97 1019.88 1019.80 1019.67 1019.49 1019.25 1019.01 1018.70 1018.44 1018.18 1017.93 1017.70 1017.41 1017.24 1017.16 1017.04 1016.90 1016.64 1016.19 1015.74 1015.19
1019.80 1019.66 1019.61 1019.62 1019.60 1019.52 1019.39 1019.18 1018.94 1018.67 1018.45 1018.23 1017.99 1017.73 1017.56 1017.39 1017.13 1016.98 1016.74 1016.37 1015.92 1015.40
1019.86 1019.99 1020.01 1019.95 1019.82 1019.64 1019.43 1019.20 1018.94 1018.73 1018.56 1018.33 1018.06 1017.77 1017.55 1017.39 1017.24 1017.03 1016.77 1016.49 1016.11 1015.65
1019.80 1019.88 1019.90 1019.82 1019.67 1019.55 1019.43 1019.26 1019.06 1018.83 1018.60 1018.34 1018.00 1017.63 1017.33 1017.05 1016.89 1016.84 1016.72 1016.48 1016.12 1015.65
1019.61 1019.67 1019.69 1019.65 1019.62 1019.55 1019.42 1019.28 1019.09 1018.89 1018.67 1018.34 1017.91 1017.53 1017.11 1016.89 1016.81 1016.71 1016.45 1016.18 1015.86 1015.45
1019.33 1019.46 1019.63 1019.68 1019.65 1019.58 1019.44 1019.24 1019.01 1018.70 1018.49 1018.23 1017.84 1017.36 1016.85 1016.48 1016.35 1016.27 1016.15 1016.01 1015.60 1015.17
1019.12 1019.28 1019.52 1019.66 1019.65 1019.55 1019.36 1019.21 1018.98 1018.80 1018.43 1018.15 1017.69 1017.10 1016.68 1016.27 1016.02 1016.01 1015.95 1015.72 1015.39 1015.03
1018.94 1019.27 1019.49 1019.46 1019.38 1019.32 1019.15 1019.05 1018.82 1018.61 1018.31 1017.97 1017.47 1016.90 1016.48 1016.11 1016.01 1015.89 1015.70 1015.42 1015.10 1014.85
1018.84 1019.01 1019.12 1019.17 1019.18 1019.01 1019.04 1018.93 1018.68 1018.45 1018.23 1017.98 1017.56 1016.99 1016.41 1016.02 1015.99 1015.85 1015.63 1015.24 1014.89 1014.48
1018.39 1018.75 1019.03 1019.09 1019.00 1018.78 1018.76 1018.64 1018.44 1018.32 1018.14 1017.85 1017.50 1017.01 1016.40 1015.98 1015.78 1015.61 1015.39 1015.02 1014.65 1014.29
1018.33 1018.52 1018.53 1018.60 1018.61 1018.64 1018.56 1018.53 1018.48 1018.30 1018.00 1017.66 1017.30 1016.83 1016.24 1015.75 1015.39 1015.32 1014.94 1014.75 1014.33 1013.87
Wind_Speed
5 3 3 3 3 3 4 4 7 8 8 8 8 7 5 2 2 3 3 5 5 5
6 6 5 6 4 4 5 5 6 6 6 5 6 7 7 5 6 5 4 4 4 4
4 5 5 5 6 6 5 5 5 5 5 6 7 6 6 5 7 7 5 4 6 5
4 5 4 4 4 4 4 5 6 5 6 6 6 6 5 5 5 6 7 7 8 9
1 1 2 4 5 5 6 5 6 6 6 6 5 5 4 5 5 5 7 8 9 9
2 4 4 5 5 5 5 5 5 5 5 5 6 5 5 4 5 5 5 6 7 8
1 2 2 3 4 5 6 5 6 6 5 5 6 6 6 6 5 4 4 5 6 7
2 1 0 2 4 4 4 4 4 4 5 5 5 4 6 4 4 4 5 5 5 6
3 1 2 3 4 4 4 4 4 4 4 4 4 12 13 10 3 4 4 5 5 6
3 1 3 4 4 5 5 4 5 6 5 6 6 14 14 14 3 4 4 5 5 6
3 1 2 3 4 4 3 4 4 5 6 5 6 14 15 16 5 4 5 5 6 5
3 3 4 4 4 4 2 3 3 4 5 6 6 12 14 11 5 5 6 6 6 7
4 4 4 4 4 2 2 3 3 4 4 7 5 10 13 11 3 4 4 5 5 12
3 3 3 3 2 2 3 4 4 4 5 5 5 6 12 12 4 4 4 4 6 5
Wind_Direction
21 24 34 31 17 4 358 358 359 10 15 9 8 360 355 336 338 339 340 343 344 311
25 23 19 20 16 16 15 14 14 9 7 356 8 3 4 358 4 336 308 290 288 298
12 22 26 34 25 17 9 9 11 8 7 5 8 2 10 2 6 353 345 340 329 331
13 24 30 30 11 6 360 0 6 2 4 5 2 0 15 360 9 356 344 342 343 337
60 32 20 2 356 3 4 359 359 0 1 355 352 348 360 357 358 356 348 343 339 335
16 9 359 353 354 358 355 351 353 0 355 345 337 336 329 321 338 345 339 331 332 323
319 357 359 356 357 357 353 356 352 350 351 348 327 325 326 319 323 326 330 311 315 315
242 218 338 356 343 336 344 336 328 337 336 329 320 323 322 317 291 310 319 324 320 323
209 201 351 337 337 341 331 328 336 338 334 330 333 333 343 341 310 273 300 314 316 323
193 293 339 336 330 321 322 323 330 329 333 330 319 341 343 339 325 328 326 314 317 327
195 268 309 286 286 297 288 310 314 319 328 332 325 346 342 338 358 335 313 297 297 296
197 233 250 270 289 288 284 297 312 315 330 336 324 341 340 342 349 329 317 308 316 311
204 230 264 282 288 257 282 294 325 323 329 320 324 330 333 336 307 304 296 294 293 308
220 246 252 247 253 276 307 320 320 314 310 302 306 312 331 329 314 284 286 301 298 282